AirNav   Duncan Aviation - Near you to keep you flying
 
 783 users online  

87I Yazoo County Airport
Yazoo City, Mississippi, USA

GOING TO YAZOO CITY?


FAA INFORMATION EFFECTIVE 19 MAY 2022

Location

FAA Identifier: 87I
Lat/Long: 32-53-00.6000N 090-27-50.4000W
32-53.010000N 090-27.840000W
32.8835000,-90.4640000
(estimated)
Elevation: 105.3 ft. / 32.1 m (surveyed)
Variation: 00E (2010)
From city: 4 miles NW of YAZOO CITY, MS
Time zone: UTC -5 (UTC -6 during Standard Time)
Zip code: 39194

Airport Operations

Airport use: Open to the public
Activation date: 11/1989
Control tower: no
ARTCC: MEMPHIS CENTER
FSS: GREENWOOD FLIGHT SERVICE STATION
NOTAMs facility: GWO (NOTAM-D service available)
Attendance: UNATNDD
Wind indicator: lighted
Segmented circle: yes
Lights: MIRL RWY 17/35 PRESET LOW INTST DUSK - 2200; AFT 2200 ACTVT OR INCR INTST - CTAF.
Beacon: white-green (lighted land airport)
Operates sunset to sunrise.

Airport Communications

CTAF/UNICOM: 122.8
  • APCH/DEP SVC PRVDD BY MEMPHIS ARTCC ON FREQS 132.5/259.1 (JACKSON RCAG).

Nearby radio navigation aids

VOR radial/distance  VOR name  Freq  Var
MHZr327/32.6MAGNOLIA VORTAC113.2001W
SQSr192/36.1SIDON VORTAC114.7003E

Airport Services

Fuel available: 100LL JET-A1+
Parking: tiedowns

Runway Information

Runway 17/35

Dimensions: 5001 x 100 ft. / 1524 x 30 m
Surface: asphalt, in fair condition
Weight bearing capacity: 
Single wheel: 30.0
Double tandem: 64.0
Runway edge lights: medium intensity
RUNWAY 17  RUNWAY 35
Latitude: 32-53.419198N32-52.599020N
Longitude: 090-27.889163W090-27.789462W
Elevation: 104.2 ft.104.2 ft.
Traffic pattern: leftleft
Runway heading: 174354
Markings: nonprecision, in good conditionnonprecision, in good condition
Visual slope indicator: 2-light PAPI on left (3.00 degrees glide path)2-light PAPI on left (3.00 degrees glide path)
Touchdown point: yes, no lightsyes, no lights
Obstructions: 80 ft. trees, 3000 ft. from runway, 250 ft. left of centerline, 35:1 slope to clear53 ft. trees, 1590 ft. from runway, 26:1 slope to clear

Airport Ownership and Management from official FAA records

Ownership: Publicly-owned
Owner: COUNTY OF YAZOO
PO BOX 172
YAZOO CITY, MS 39194
Phone 662-746-1273
Manager: MICHAEL MCCAIN
51 AIRWAYS RD
YAZOO CITY, MS 39194
Phone 662-571-1392
MICHAEL.MCCAIN@YAZOOCOUNTYMS.GOV.

Airport Operational Statistics

Aircraft based on the field: 11
Single engine airplanes: 8
Multi engine airplanes: 1
Helicopters: 2
    
Aircraft operations: avg 24/day *
86% local general aviation
12% transient general aviation
1% military
* for 12-month period ending 24 February 2022

Additional Remarks

FOR CD CTC MEMPHIS ARTCC AT 901-368-8453/8449.
FUEL AVBL 24 HRS WITH CREDIT CARD.
COURTESY CAR AVBL.

Instrument Procedures

NOTE: All procedures below are presented as PDF files. If you need a reader for these files, you should download the free Adobe Reader.

NOT FOR NAVIGATION. Please procure official charts for flight.
FAA instrument procedures published for use from 19 May 2022 at 0901Z to 16 June 2022 at 0900Z.

 
IAPs - Instrument Approach Procedures
RNAV (GPS) RWY 17   download (196KB)
RNAV (GPS) RWY 35   download (178KB)
NOTE: Special Take-Off Minimums/Departure Procedures apply   download (116KB)

Other nearby airports with instrument procedures:

19M - C A Moore Airport (26 nm NE)
KMBO - Bruce Campbell Field Airport (32 nm SE)
KJVW - John Bell Williams Airport (35 nm S)
KHKS - Hawkins Field Airport (35 nm S)
KIDL - Indianola Municipal Airport (38 nm N)
 
Loc | Ops | Rwys | IFR | FBO | Links
Com | Nav | Svcs | Stats | Notes
Area around 87I (Yazoo County Airport)
 
Road maps at: MapQuest Bing Google
 
Aerial photo
WARNING: Photo may not be current or correct
Aerial photo of 87I (Yazoo County Airport)
Photo by Bart Barrack
Photo taken 18-Nov-2008
from 9500 feet MSL

Do you have a better or more recent aerial photo of Yazoo County Airport that you would like to share? If so, please send us your photo.

 
Sectional chart

 
Airport distance calculator
Flying to Yazoo County Airport? Find the distance to fly.

From to 87I

Sunrise and sunset
Times for 21-May-2022
 Local
(UTC-5)
 Zulu
(UTC)
Morning civil twilight05:3210:32
Sunrise06:0011:00
Sunset19:5700:57
Evening civil twilight20:2501:25

Current date and time
Zulu (UTC)  22-May-2022 03:39:22
Local (UTC-5)  21-May-2022 22:39:22
 
METAR
KMBO 
32nm SE 
212035Z AUTO 19008KT 150V210 10SM CLR 34/21 A2998 RMK AO2 LTG DSNT S AND NW
KJVW 
35nm S 
220315Z AUTO 00000KT 10SM CLR 24/24 A3002 RMK AO2
KHKS 
35nm S 
220253Z AUTO 16006KT 10SM CLR 24/21 A3003 RMK AO2 SLP159 T02440206 51007
KJAN 
39nm SE 
220254Z 14006KT 10SM CLR 23/20 A3003 RMK AO2 SLP164 T02280200 50005
KGWO 
42nm NE 
220253Z AUTO 18013G20KT 10SM CLR 27/18 A3000 RMK AO2 SLP156 T02670183 51017
KTVR 
43nm SW 
220253Z AUTO 18010KT 10SM CLR 28/22 A3001 RMK AO2 SLP168 T02830217 53015
KGLH 
45nm NW 
220253Z AUTO 17010G18KT 10SM CLR 28/21 A2996 RMK AO2 SLP150 T02830206 51018
KVKS 
46nm SW 
220315Z AUTO 17010G15KT 130V190 10SM CLR 26/22 A3000 RMK A01
TAF
KHKS 
35nm S 
211733Z 2118/2218 18008KT P6SM SCT027 BKN035 FM212100 19009KT P6SM VCTS FEW040CB SCT100 FM220000 18009KT P6SM FEW035 SCT100 FM221000 VRB04KT P6SM BKN009 FM221300 10005KT P6SM -RA OVC050
KJAN 
39nm SE 
211733Z 2118/2218 18011KT P6SM BKN030 BKN045 BKN050 FM212100 19009KT P6SM VCTS FEW040CB SCT100 FM220000 18009KT P6SM FEW035 SCT100 FM221000 VRB04KT P6SM BKN009 FM221300 10005KT P6SM -RA OVC050
KGWO 
42nm NE 
211733Z 2118/2218 17010KT P6SM SCT025 BKN030 BKN090 FM220000 18007KT P6SM VCSH FEW050 SCT100 FM220600 21005KT P6SM VCSH SCT011 BKN050 FM220800 VRB04KT P6SM OVC007 FM221600 04005KT P6SM OVC015
NOTAMs
Click for the latest NOTAMs
NOTAMs are issued by the DoD/FAA and will open in a separate window not controlled by AirNav.

 

 
 

FBO, Fuel Providers, and Aircraft Ground Support

  
 Business Name 
 
 Contact 
 
 Services / Description 
 
Fuel Prices
 
Comments
  
Yazoo County Airport 662-571-1392
no information available

If you are affiliated with Yazoo County Airport and would like to show here your services, contact info, web link, logo, and more, click here
100LL Jet A
SS $5.29 $5.42 
 Updated 21-Feb-2022
 
   write
SS=Self service
Update Fuel Prices
 

Would you like to see your business listed on this page?

 If your business provides an interesting product or service to pilots, flight crews, aircraft, or users of the Yazoo County Airport, you should consider listing it here.  To start the listing process, click on the button below
 
Add a business
 

Other Pages about Yazoo County Airport

www.yazoocounty.net/yazoo-county-airport
 
Update a link
 
Copyright © AirNav, LLC. All rights reserved. Privacy Policy  Contact